Location: Lafig�re
(44.4503°N, 4.0357°E)
Time: 15:02:41
(UTC+00:00)

Transit 2A Rocket - Pass Details

Date: 23 January 2021
Orbit: 594 x 908 km, 66.7° (Epoch: 06 March)

Event Time Altitude Azimuth Distance (km) Brightness Sun altitude
Rises 22:02:20 0° 312° (NW) 2,883 - -55.4°
Reaches altitude 10° 22:05:15 10° 293° (WNW) 1,947 - -55.9°
Maximum altitude 22:08:03 17° 252° (WSW) 1,526 - -56.2°
Drops below altitude 10° 22:10:50 10° 211° (SSW) 1,922 - -56.6°
Sets 22:13:42 0° 191° (SSW) 2,829 - -57.0°
